Change the Weather History Date:

Sunday, September 15, 2013

  Actual Average Record
Temperature  
Mean Temperature 60 °F -  
Max Temperature 77 °F - - ()
Min Temperature 43 °F - - ()
Degree Days  
Heating Degree Days 5    
Growing Degree Days 10 (Base 50)    
Moisture  
Dew Point 37 °F    
Average Humidity 46    
Maximum Humidity 74    
Minimum Humidity 13    
Precipitation  
Precipitation 0.00 in - - ()
Sea Level Pressure  
Sea Level Pressure 30.11 in    
Wind  
Wind Speed 11 mph ()    
Max Wind Speed 17 mph    
Max Gust Speed 25 mph    
T = Trace of Precipitation, MM = Missing Value Source: Averaged Metar Reports

Daily Weather History Graph

Daily Weather History Graph

Search for Another Location

Airport or City:

Trip Planner

Search our weather history database for the weather conditions in past years. The results will help you decide how hot, cold, wet, or windy it might be!

Date:

Astronomy

Sep. 15, 2013 Rise Set
Actual Time 6:56 AM MDT 7:34 PM MDT
Civil Twilight 6:22 AM MDT 8:08 PM MDT
Nautical Twilight 5:41 AM MDT 8:48 PM MDT
Astronomical Twilight 4:59 AM MDT 9:30 PM MDT
Moon 5:24 PM MDT (9/15) 2:13 AM MDT (9/15)
Length of Visible Light 13h 45m
Length of Day
12h 38m
Waxing Gibbous, 82% of the Moon is Illuminated
Sep 15
Waxing Gibbous
Sep 19
Full
Sep 26
Last Quarter
Oct 4
New
Oct 11
First Quarter

Hourly Weather History & Observations

Time (MDT) Temp. Windchill Dew Point Humidity Pressure Visibility Wind Dir Wind Speed Gust Speed Precip Events Conditions
12:00 AM 52 °F - 37 °F 46% 30.19 in - SE 12.7 mph - -  
12:00 AM 51.6 °F - 37.4 °F 58% 30.19 in - SE 12.7 mph - N/A   Unknown
1:00 AM 51.1 °F - 37.6 °F 60% 30.20 in - SE 12.7 mph - N/A   Unknown
2:00 AM 49.5 °F - 37.2 °F 63% 30.20 in - SE 12.7 mph - N/A   Unknown
3:00 AM 50.0 °F - 37.2 °F 62% 30.19 in - SE 12.7 mph - N/A   Unknown
4:00 AM 47.8 °F - 37.2 °F 67% 30.20 in - SE 11.5 mph - N/A   Unknown
5:00 AM 47.3 °F - 37.2 °F 68% 30.19 in - SE 12.7 mph - N/A   Unknown
6:00 AM 47 °F - 37 °F 58% 30.20 in - SE 10.4 mph - -  
6:00 AM 46.6 °F - 36.9 °F 69% 30.20 in - SE 10.4 mph - N/A   Unknown
7:00 AM 44.6 °F 39.2 °F 36.7 °F 74% 30.21 in - SE 10.4 mph - N/A   Unknown
8:00 AM 46.2 °F 41.2 °F 37.0 °F 70% 30.22 in - ESE 10.4 mph - N/A   Unknown
9:00 AM 51.6 °F - 38.8 °F 62% 30.20 in - ESE 10.4 mph - N/A   Unknown
10:00 AM 59.4 °F - 39.6 °F 48% 30.18 in - ESE 10.4 mph - N/A   Unknown
11:00 AM 65.8 °F - 39.2 °F 38% 30.15 in - ESE 13.8 mph - N/A   Unknown
12:00 PM 69 °F - 37 °F 20% 30.14 in - ESE 17.3 mph - -  
12:00 PM 68.9 °F - 36.7 °F 31% 30.14 in - ESE 17.3 mph - N/A   Unknown
1:00 PM 70.5 °F - 34.3 °F 26% 30.12 in - ESE 17.3 mph 25.3 mph N/A   Unknown
2:00 PM 73.8 °F - 33.3 °F 23% 30.09 in - SE 16.1 mph 23.0 mph N/A   Unknown
3:00 PM 75.4 °F - 31.1 °F 20% 30.06 in - ESE 17.3 mph 24.2 mph N/A   Unknown
4:00 PM 76.6 °F - 31.1 °F 19% 30.04 in - ESE 13.8 mph 24.2 mph N/A   Unknown
5:00 PM 76.5 °F - 31.8 °F 20% 30.02 in - ESE 15.0 mph 21.9 mph N/A   Unknown
6:00 PM 76 °F - 35 °F 13% 29.99 in - ESE 13.8 mph - -  
6:00 PM 75.7 °F - 35.2 °F 23% 29.99 in - ESE 13.8 mph - N/A   Unknown
7:00 PM 71.6 °F - 37.9 °F 29% 29.98 in - ESE 10.4 mph - N/A   Unknown
8:00 PM 63.7 °F - 42.6 °F 46% 29.96 in - ESE 10.4 mph - N/A   Unknown
9:00 PM 59.2 °F - 42.3 °F 53% 29.95 in - SE 10.4 mph - N/A   Unknown
10:00 PM 57.2 °F - 42.6 °F 58% 29.94 in - SE 10.4 mph - N/A   Unknown
11:00 PM 58.1 °F - 42.4 °F 56% 29.91 in - SE 11.5 mph - N/A   Unknown